EW2561 Weather Reports


Display with metric or nautical units.
time (UTC)temp
F
wind
direction
speed
MPH
gust
MPH
rain 1hr
in
rain 24hr
in
rain mn
in
humidity
%
barometer
mb
20260509073629 60 42 1.0 4.0 0.00 0.00 0.00 72 1015.5
20260509073101 60 88 1.0 4.0 0.00 0.00 0.00 74 1015.5
20260509072601 60 71 1.0 4.0 0.00 0.00 0.00 74 1015.5
20260509072102 59 107 0.0 3.0 0.00 0.00 0.00 74 1015.5
20260509071601 59 76 1.0 3.0 0.00 0.00 0.00 75 1015.5
20260509071101 58 74 1.0 3.0 0.00 0.00 0.00 76 1015.5
20260509070530 58 51 0.0 3.0 0.00 0.00 0.00 78 1015.5
20260509070017 57 110 0.0 1.0 0.00 0.00 0.00 80 1015.5
20260509065501 56 110 0.0 0.0 0.00 0.00 0.00 81 1015.5
20260509065000 56 110 0.0 2.0 0.00 0.00 0.00 82 1015.5
20260509064501 56 110 0.0 2.0 0.00 0.00 0.00 82 1015.4
20260509064000 55 89 0.0 2.0 0.00 0.00 0.00 83 1015.3
20260509063503 54 94 0.0 0.0 0.00 0.00 0.00 88 1015.4
20260509062931 53 130 0.0 0.0 0.00 0.00 0.00 89 1015.2
20260509062425 53 130 0.0 0.0 0.00 0.00 0.00 90 1015.3
20260509061920 53 130 0.0 0.0 0.00 0.00 0.00 93 1015.3
20260509061403 51 130 0.0 0.0 0.00 0.00 0.00 96 1015.3
20260509060901 50 130 0.0 0.0 0.00 0.00 0.00 97 1015.4
20260509060402 49 130 0.0 0.0 0.00 0.00 0.00 97 1015.4
20260509055830 48 130 0.0 0.0 0.00 0.00 0.00 97 1015.4
20260509055331 48 130 0.0 0.0 0.00 0.00 0.00 98 1015.4
20260509055042 48 130 0.0 0.0 0.00 0.00 0.00 98 1015.4
20260509054318 47 130 0.0 0.0 0.00 0.00 0.00 98 1015.4
20260509053803 46 130 0.0 0.0 0.00 0.00 0.00 98 1015.4
20260509053303 44 130 0.0 0.0 0.00 0.00 0.00 98 1015.4
20260509052801 43 130 0.0 0.0 0.00 0.00 0.00 97 1015.4
20260509052525 42 130 0.0 0.0 0.00 0.00 0.00 97 1015.3
20260509051803 42 130 0.0 0.0 0.00 0.00 0.00 97 1015.3
20260509051301 41 130 0.0 0.0 0.00 0.00 0.00 97 1015.3
20260509050744 41 130 0.0 0.0 0.00 0.00 0.00 96 1015.2
20260509050229 41 130 0.0 0.0 0.00 0.00 0.00 96 1015.2
20260509045946 41 130 0.0 0.0 0.00 0.00 0.00 96 1015.1
20260509045202 41 130 0.0 0.0 0.00 0.00 0.00 96 1015.1
20260509044701 40 130 0.0 0.0 0.00 0.00 0.00 96 1015.1
20260509044400 40 130 0.0 0.0 0.00 0.00 0.00 96 1015.0
20260509043638 40 130 0.0 0.0 0.00 0.00 0.00 96 1015.1
20260509043134 40 130 0.0 0.0 0.00 0.00 0.00 96 1015.1
20260509042630 40 130 0.0 0.0 0.00 0.00 0.00 96 1015.1
20260509042129 40 130 0.0 0.0 0.00 0.00 0.00 96 1015.0
20260509041602 40 130 0.0 0.0 0.00 0.00 0.00 96 1015.0
20260509041029 40 130 0.0 0.0 0.00 0.00 0.00 95 1015.0
20260509040530 40 130 0.0 0.0 0.00 0.00 0.00 95 1015.0
20260509040240 40 130 0.0 0.0 0.00 0.00 0.00 95 1015.0
20260509040230 40 130 0.0 0.0 0.00 0.00 0.00 95 1015.0
20260509035227 40 130 0.0 0.0 0.00 0.00 0.00 95 1015.0
20260509034651 40 130 0.0 0.0 0.00 0.00 0.00 95 1015.0
20260509033930 41 130 0.0 0.0 0.00 0.00 0.00 95 1015.1
20260509033411 41 130 0.0 0.0 0.00 0.00 0.00 95 1015.1
20260509032903 41 130 0.0 0.0 0.00 0.00 0.00 95 1015.0
20260509032400 41 130 0.0 0.0 0.00 0.00 0.00 95 1015.0
20260509031901 41 130 0.0 0.0 0.00 0.00 0.00 95 1015.0
20260509031627 41 130 0.0 0.0 0.00 0.00 0.00 95 1015.0
20260509030902 41 130 0.0 0.0 0.00 0.00 0.00 95 1015.1
20260509030330 41 130 0.0 0.0 0.00 0.00 0.00 95 1015.2
20260509025829 41 130 0.0 0.0 0.00 0.00 0.00 95 1015.2
20260509025306 41 130 0.0 0.0 0.00 0.00 0.00 95 1015.3
20260509025031 41 130 0.0 0.0 0.00 0.00 0.00 95 1015.3
20260509024229 41 130 0.0 0.0 0.00 0.00 0.00 95 1015.3
20260509023723 42 130 0.0 0.0 0.00 0.00 0.00 95 1015.3
20260509023202 42 130 0.0 0.0 0.00 0.00 0.00 95 1015.3
20260509022701 42 130 0.0 0.0 0.00 0.00 0.00 95 1015.3
20260509022356 42 130 0.0 0.0 0.00 0.00 0.00 95 1015.2
20260509021631 42 130 0.0 0.0 0.00 0.00 0.00 95 1015.2
20260509021129 42 130 0.0 0.0 0.00 0.00 0.00 95 1015.2
20260509020602 42 130 0.0 0.0 0.00 0.00 0.00 95 1015.2
20260509020100 42 130 0.0 0.0 0.00 0.00 0.00 95 1015.2
20260509015603 42 130 0.0 0.0 0.00 0.00 0.00 94 1015.2
20260509015101 42 130 0.0 0.0 0.00 0.00 0.00 94 1015.2
20260509014601 42 130 0.0 0.0 0.00 0.00 0.00 94 1015.2
20260509014258 42 130 0.0 0.0 0.00 0.00 0.00 94 1015.3
20260509013529 42 130 0.0 0.0 0.00 0.00 0.00 94 1015.3
20260509013035 42 130 0.0 0.0 0.00 0.00 0.00 94 1015.3
20260509012533 43 130 0.0 0.0 0.00 0.00 0.00 94 1015.3
20260509012029 43 130 0.0 0.0 0.00 0.00 0.00 94 1015.3
20260509012011 43 130 0.0 0.0 0.00 0.00 0.00 94 1015.3
20260509011030 43 130 0.0 0.0 0.00 0.00 0.00 94 1015.3
20260509010530 43 130 0.0 0.0 0.00 0.00 0.00 94 1015.4
20260509010002 43 130 0.0 0.0 0.00 0.00 0.00 94 1015.4
20260509005503 43 130 0.0 0.0 0.00 0.00 0.00 94 1015.4
20260509005002 43 130 0.0 0.0 0.00 0.00 0.00 94 1015.4
20260509004431 44 130 0.0 0.0 0.00 0.00 0.00 94 1015.4
20260509003930 44 130 0.0 0.0 0.00 0.00 0.00 94 1015.3
20260509003428 44 130 0.0 0.0 0.00 0.00 0.00 94 1015.4
20260509002923 44 130 0.0 0.0 0.00 0.00 0.00 94 1015.3
20260509002906 44 130 0.0 0.0 0.00 0.00 0.00 94 1015.3
20260509001917 44 130 0.0 0.0 0.00 0.00 0.00 93 1015.3
20260509001416 44 130 0.0 0.0 0.00 0.00 0.00 93 1015.3
20260509000903 44 130 0.0 0.0 0.00 0.00 0.00 93 1015.4
20260509000403 44 130 0.0 0.0 0.00 0.00 0.00 93 1015.4
20260508235831 44 130 0.0 0.0 0.00 0.00 0.00 93 1015.3
20260508235330 44 130 0.0 0.0 0.00 0.00 0.00 93 1015.4
20260508234830 45 130 0.0 0.0 0.00 0.00 0.00 93 1015.4
20260508234330 45 130 0.0 0.0 0.00 0.00 0.00 93 1015.5
20260508233830 45 130 0.0 0.0 0.00 0.00 0.00 93 1015.5
20260508233329 45 130 0.0 0.0 0.00 0.00 0.00 93 1015.5
20260508232830 45 130 0.0 0.0 0.00 0.00 0.00 93 1015.5
20260508232330 45 130 0.0 0.0 0.00 0.00 0.00 93 1015.6
20260508231825 45 130 0.0 0.0 0.00 0.00 0.00 93 1015.5
20260508231301 46 130 0.0 0.0 0.00 0.00 0.00 93 1015.6
20260508230801 46 130 0.0 0.0 0.00 0.00 0.00 93 1015.5
20260508230532 46 130 0.0 0.0 0.00 0.00 0.00 93 1015.5
20260508225801 46 130 0.0 0.0 0.00 0.00 0.00 92 1015.5
20260508225301 46 130 0.0 0.0 0.00 0.00 0.00 92 1015.5
20260508224729 46 130 0.0 0.0 0.00 0.00 0.00 92 1015.5
20260508224228 46 130 0.0 0.0 0.00 0.00 0.00 92 1015.4
20260508223730 46 130 0.0 0.0 0.00 0.00 0.00 92 1015.4
20260508223452 46 130 0.0 0.0 0.00 0.00 0.00 92 1015.4
20260508222735 47 130 0.0 0.0 0.00 0.00 0.00 92 1015.3
20260508222224 47 130 0.0 0.0 0.00 0.00 0.00 91 1015.3
20260508222205 47 130 0.0 0.0 0.00 0.00 0.00 91 1015.3
20260508221208 47 130 0.0 0.0 0.00 0.00 0.00 91 1015.3
20260508220703 47 130 0.0 0.0 0.00 0.00 0.00 91 1015.3
20260508220151 47 130 0.0 0.0 0.00 0.00 0.00 91 1015.3
20260508215645 47 130 0.0 0.0 0.00 0.00 0.00 91 1015.3
20260508215142 48 130 0.0 0.0 0.00 0.00 0.00 91 1015.3
20260508214902 48 130 0.0 0.0 0.00 0.00 0.00 90 1015.2
20260508214134 48 130 0.0 0.0 0.00 0.00 0.00 90 1015.2
20260508213607 48 130 0.0 0.0 0.00 0.00 0.00 89 1015.3
20260508213035 48 130 0.0 0.0 0.00 0.00 0.00 89 1015.3
20260508212534 49 130 0.0 0.0 0.00 0.00 0.00 89 1015.2
20260508212006 49 130 0.0 0.0 0.00 0.00 0.00 88 1015.2
20260508211507 49 130 0.0 0.0 0.00 0.00 0.00 88 1015.2
20260508211412 49 130 0.0 0.0 0.00 0.00 0.00 88 1015.2
20260508210435 49 130 0.0 0.0 0.00 0.00 0.00 88 1015.3
20260508205931 50 130 0.0 0.0 0.00 0.00 0.00 87 1015.3
20260508205406 50 130 0.0 0.0 0.00 0.00 0.00 87 1015.2
20260508204906 50 130 0.0 0.0 0.00 0.00 0.00 86 1015.2
20260508204820 50 130 0.0 0.0 0.00 0.00 0.00 86 1015.2
20260508203832 51 130 0.0 0.0 0.00 0.00 0.00 85 1015.2
20260508203330 51 130 0.0 0.0 0.00 0.00 0.00 85 1015.2
20260508202829 51 130 0.0 0.0 0.00 0.00 0.00 85 1015.1
20260508202329 51 130 0.0 0.0 0.00 0.00 0.00 84 1015.1
20260508201829 52 130 0.0 0.0 0.00 0.00 0.00 84 1015.1
20260508201331 52 130 0.0 0.0 0.00 0.00 0.00 83 1015.1
20260508200829 52 130 0.0 0.0 0.00 0.00 0.00 82 1015.0
20260508200330 53 130 0.0 0.0 0.00 0.00 0.00 82 1014.9
20260508200045 53 130 0.0 0.0 0.00 0.00 0.00 81 1015.0
20260508195312 54 130 0.0 0.0 0.00 0.00 0.00 80 1014.9
20260508194803 54 130 0.0 0.0 0.00 0.00 0.00 80 1014.9
20260508194303 55 130 0.0 0.0 0.00 0.00 0.00 79 1015.0
20260508193801 55 130 0.0 0.0 0.00 0.00 0.00 78 1014.9
20260508193301 55 130 0.0 0.0 0.00 0.00 0.00 77 1014.9
20260508192801 56 130 0.0 0.0 0.00 0.00 0.00 76 1014.9
20260508192230 57 130 0.0 0.0 0.00 0.00 0.00 75 1014.7
20260508192214 57 130 0.0 0.0 0.00 0.00 0.00 73 1014.7
20260508191423 58 130 0.0 0.0 0.00 0.00 0.00 72 1014.7
20260508190701 58 130 0.0 0.0 0.00 0.00 0.00 71 1014.6
20260508190129 59 130 0.0 0.0 0.00 0.00 0.00 70 1014.5
20260508185629 60 130 0.0 0.0 0.00 0.00 0.00 69 1014.4
20260508185131 60 130 0.0 0.0 0.00 0.00 0.00 68 1014.3
20260508184631 61 130 0.0 1.0 0.00 0.00 0.00 66 1014.3
20260508184130 61 130 0.0 1.0 0.00 0.00 0.00 61 1014.3
20260508183603 61 130 0.0 1.0 0.00 0.00 0.00 61 1014.3
20260508183101 62 130 0.0 3.0 0.00 0.00 0.00 60 1014.1
20260508182530 62 130 0.0 3.0 0.00 0.00 0.00 57 1014.1
20260508182027 62 139 0.0 1.0 0.00 0.00 0.00 57 1014.1
20260508181745 63 137 1.0 3.0 0.00 0.00 0.00 56 1014.1
20260508181013 63 124 1.0 2.0 0.00 0.00 0.00 55 1014.0
20260508180506 63 160 1.0 6.0 0.00 0.00 0.00 54 1014.0
20260508180002 64 133 1.0 5.0 0.00 0.00 0.00 53 1013.8
20260508175501 64 150 2.0 5.0 0.00 0.00 0.00 53 1013.8
20260508174930 64 75 2.0 6.0 0.00 0.00 0.00 52 1013.8
20260508174652 64 110 2.0 6.0 0.00 0.00 0.00 52 1013.8
20260508173902 64 40 2.0 4.0 0.00 0.00 0.00 52 1013.7
20260508173556 64 56 2.0 5.0 0.00 0.00 0.00 52 1013.6
20260508172829 64 50 2.0 4.0 0.00 0.00 0.00 51 1013.7
20260508172306 64 145 2.0 7.0 0.00 0.00 0.00 51 1013.6
20260508171801 64 108 2.0 7.0 0.00 0.00 0.00 51 1013.6
20260508171229 65 135 2.0 5.0 0.00 0.00 0.00 51 1013.6
20260508170729 65 120 2.0 5.0 0.00 0.00 0.00 51 1013.6
20260508170231 65 346 2.0 5.0 0.00 0.00 0.00 52 1013.5
20260508165729 65 113 2.0 6.0 0.00 0.00 0.00 51 1013.5
20260508165450 65 91 1.0 6.0 0.00 0.00 0.00 51 1013.4
20260508164704 65 163 1.0 5.0 0.00 0.00 0.00 53 1013.4
20260508164202 65 128 2.0 6.0 0.00 0.00 0.00 52 1013.4
20260508164129 65 65 2.0 6.0 0.00 0.00 0.00 52 1013.4
20260508163137 65 122 3.0 7.0 0.00 0.00 0.00 53 1013.4
20260508162633 65 86 2.0 7.0 0.00 0.00 0.00 53 1013.4
20260508162130 65 338 2.0 5.0 0.00 0.00 0.00 53 1013.4
20260508161824 65 137 3.0 8.0 0.00 0.00 0.00 53 1013.4
20260508161328 65 98 3.0 8.0 0.00 0.00 0.00 52 1013.5
20260508160550 65 146 3.0 7.0 0.00 0.00 0.00 53 1013.5
20260508160036 65 31 2.0 7.0 0.00 0.00 0.00 54 1013.5
20260508155535 65 67 2.0 7.0 0.00 0.00 0.00 54 1013.6
20260508155002 65 83 2.0 7.0 0.00 0.00 0.00 54 1013.5
20260508154501 65 0 2.0 7.0 0.00 0.00 0.00 54 1013.5
20260508154001 65 72 3.0 8.0 0.00 0.00 0.00 53 1013.6
20260508153506 65 131 3.0 8.0 0.00 0.00 0.00 54 1013.6
20260508152936 65 99 3.0 5.0 0.00 0.00 0.00 52 1013.6
20260508152657 65 134 2.0 6.0 0.00 0.00 0.00 51 1013.7
20260508151931 65 49 2.0 6.0 0.00 0.00 0.00 53 1013.7
20260508151403 65 15 2.0 6.0 0.00 0.00 0.00 51 1013.8
20260508151127 65 95 2.0 6.0 0.00 0.00 0.00 51 1013.8
20260508150402 65 69 2.0 4.0 0.00 0.00 0.00 51 1013.8
20260508145901 65 129 2.0 4.0 0.00 0.00 0.00 51 1013.8
20260508145402 65 143 2.0 5.0 0.00 0.00 0.00 53 1013.8
20260508144900 65 47 2.0 5.0 0.00 0.00 0.00 53 1013.8
20260508144401 65 122 2.0 6.0 0.00 0.00 0.00 51 1013.8
20260508143901 65 57 2.0 6.0 0.00 0.00 0.00 52 1013.8
20260508143403 65 34 1.0 5.0 0.00 0.00 0.00 52 1014.0
20260508142831 65 1 2.0 5.0 0.00 0.00 0.00 54 1014.0
20260508142325 65 98 2.0 7.0 0.00 0.00 0.00 51 1014.1
20260508141805 65 300 2.0 7.0 0.00 0.00 0.00 53 1014.1
20260508141303 65 2 3.0 6.0 0.00 0.00 0.00 53 1014.1
20260508141215 65 77 3.0 6.0 0.00 0.00 0.00 54 1014.2
20260508140231 65 350 2.0 6.0 0.00 0.00 0.00 55 1014.1
20260508135729 65 91 3.0 7.0 0.00 0.00 0.00 54 1014.2
20260508135229 65 113 3.0 7.0 0.00 0.00 0.00 55 1014.2
20260508134722 65 0 3.0 7.0 0.00 0.00 0.00 55 1014.2
20260508134204 65 94 2.0 7.0 0.00 0.00 0.00 54 1014.3
20260508133645 65 349 2.0 5.0 0.00 0.00 0.00 55 1014.2
20260508133131 65 45 2.0 6.0 0.00 0.00 0.00 53 1014.3
20260508132630 65 104 1.0 6.0 0.00 0.00 0.00 53 1014.3
20260508132322 65 298 2.0 5.0 0.00 0.00 0.00 55 1014.2
20260508131603 64 87 2.0 5.0 0.00 0.00 0.00 55 1014.2
20260508131103 64 77 2.0 4.0 0.00 0.00 0.00 54 1014.2
20260508130531 64 139 2.0 7.0 0.00 0.00 0.00 56 1014.4
20260508130031 64 160 3.0 7.0 0.00 0.00 0.00 55 1014.3
20260508125529 64 84 3.0 9.0 0.00 0.00 0.00 53 1014.4
20260508125252 64 21 3.0 9.0 0.00 0.00 0.00 53 1014.4
20260508124501 64 44 2.0 7.0 0.00 0.00 0.00 54 1014.4
20260508124000 65 294 2.0 7.0 0.00 0.00 0.00 55 1014.4
20260508123503 65 359 2.0 8.0 0.00 0.00 0.00 56 1014.4
20260508122931 64 147 3.0 8.0 0.00 0.00 0.00 56 1014.4
20260508122916 65 146 3.0 7.0 0.00 0.00 0.00 56 1014.3
20260508121902 65 84 3.0 7.0 0.00 0.00 0.00 57 1014.4
20260508121401 65 166 2.0 7.0 0.00 0.00 0.00 58 1014.4
20260508120903 65 105 2.0 7.0 0.00 0.00 0.00 58 1014.4
20260508120331 64 100 2.0 5.0 0.00 0.00 0.00 58 1014.4
20260508115826 64 1 2.0 6.0 0.00 0.00 0.00 59 1014.4
20260508115306 64 167 2.0 6.0 0.00 0.00 0.00 60 1014.5
20260508115031 64 41 2.0 7.0 0.00 0.00 0.00 62 1014.5
20260508114301 64 329 2.0 7.0 0.00 0.00 0.00 61 1014.5
20260508113800 64 124 2.0 6.0 0.00 0.00 0.00 62 1014.5
20260508113306 63 27 1.0 5.0 0.00 0.00 0.00 63 1014.5
20260508112735 63 41 1.0 4.0 0.00 0.00 0.00 62 1014.5
20260508112234 63 192 2.0 5.0 0.00 0.00 0.00 63 1014.6
20260508111702 63 344 1.0 5.0 0.00 0.00 0.00 63 1014.5
20260508111201 63 102 1.0 4.0 0.00 0.00 0.00 63 1014.5
20260508110706 63 326 1.0 2.0 0.00 0.00 0.00 65 1014.5
20260508110143 63 343 1.0 3.0 0.00 0.00 0.00 61 1014.5
20260508105858 63 359 0.0 2.0 0.00 0.00 0.00 61 1014.5
20260508105131 63 23 0.0 3.0 0.00 0.00 0.00 61 1014.6
20260508104630 63 45 0.0 3.0 0.00 0.00 0.00 62 1014.6
20260508104349 62 11 1.0 4.0 0.00 0.00 0.00 60 1014.6
20260508103628 62 104 1.0 4.0 0.00 0.00 0.00 61 1014.6
20260508103320 62 124 1.0 3.0 0.00 0.00 0.00 61 1014.6
20260508102530 62 256 1.0 5.0 0.00 0.00 0.00 62 1014.6
20260508102029 63 124 2.0 5.0 0.00 0.00 0.00 62 1014.7
20260508101502 63 32 2.0 5.0 0.00 0.00 0.00 63 1014.7
20260508101002 63 156 2.0 5.0 0.00 0.00 0.00 63 1014.7
20260508100723 63 273 2.0 5.0 0.00 0.00 0.00 64 1014.6
20260508100003 62 117 1.0 5.0 0.00 0.00 0.00 64 1014.7
20260508095501 62 127 1.0 5.0 0.00 0.00 0.00 66 1014.7
20260508095001 61 290 2.0 6.0 0.00 0.00 0.00 66 1014.8
20260508094434 61 110 3.0 7.0 0.00 0.00 0.00 67 1014.7
20260508093929 61 101 2.0 6.0 0.00 0.00 0.00 67 1014.8
20260508093429 61 72 2.0 5.0 0.00 0.00 0.00 68 1014.8
20260508092931 60 25 2.0 6.0 0.00 0.00 0.00 70 1014.8
20260508092423 60 68 1.0 5.0 0.00 0.00 0.00 72 1014.7
20260508091903 60 108 1.0 4.0 0.00 0.00 0.00 75 1014.8
20260508091634 59 90 1.0 4.0 0.00 0.00 0.00 75 1014.8
20260508090902 59 115 1.0 5.0 0.00 0.00 0.00 77 1014.8
20260508090329 59 110 1.0 5.0 0.00 0.00 0.00 78 1014.8
20260508085830 59 81 2.0 4.0 0.00 0.00 0.00 78 1014.8
20260508085302 58 115 2.0 4.0 0.00 0.00 0.00 78 1014.8
20260508084801 58 100 1.0 4.0 0.00 0.00 0.00 78 1014.8
20260508084453 58 107 1.0 3.0 0.00 0.00 0.00 79 1014.7
20260508083730 58 105 1.0 3.0 0.00 0.00 0.00 80 1014.7
20260508083229 58 109 1.0 4.0 0.00 0.00 0.00 79 1014.8
20260508082728 57 33 1.0 4.0 0.00 0.00 0.00 81 1014.7
20260508082230 57 359 1.0 3.0 0.00 0.00 0.00 82 1014.7
20260508081933 57 106 1.0 3.0 0.00 0.00 0.00 82 1014.7
20260508081423 56 101 1.0 4.0 0.00 0.00 0.00 83 1014.7
20260508080631 56 134 1.0 4.0 0.00 0.00 0.00 84 1014.7
20260508080131 56 20 1.0 4.0 0.00 0.00 0.00 84 1014.6
20260508075603 56 99 1.0 4.0 0.00 0.00 0.00 84 1014.6
20260508075101 55 79 1.0 4.0 0.00 0.00 0.00 85 1014.6
20260508074601 55 134 1.0 4.0 0.00 0.00 0.00 85 1014.6
20260508074029 55 139 1.0 4.0 0.00 0.00 0.00 86 1014.7